Flag for Portugal Weather past 2 weeks in Faro, Portugal

Now
64 °F

Passing clouds.


Feels Like: 64 °F
Forecast: 61 / 76 °F
Wind: 3 mph from Northwest

Location: Faro / Aeroporto

Current Time: Sep 5, 2015 at 9:16:07 AM

Latest Report: Sep 5, 2015 at 8:30 AM


Visibility: N/A

Pressure: 30.01 "Hg

Humidity: 68%

Dew point: 54 °F

Location of FaroLocation

Historic Weather in Faro — Graph

°F

Faro temperature yesterday

Maximum temperature yesterday: 73 °F (at 12:00 PM)
Minimum temperature yesterday: 61 °F (at 6:00 AM)
Average temperature yesterday: 67 °F

Past Weeks' High & Low Weather Summary

 TemperatureHumidityPressure
High84 °F (Aug 28, 1:00 PM)100% (Aug 21, 8:00 AM)30.09 "Hg (Aug 21, 8:00 AM)
Low61 °F (Sep 3, 7:00 AM)39% (Aug 25, 12:00 PM)29.83 "Hg (Aug 29, 7:30 PM)
Average72 °F71%29.99 "Hg
* Reported Aug 21 8:00 AM — Sep 5 8:00 AM, Faro, Weather by CustomWeather, © 2015

Note: Actual official high and low records may vary slightly from our data, if they occured in-between our weather recording intervals... More about our weather records

Advertising

Faro weather history for previous 24 hours

 ConditionsComfort  
Time TempWeatherWind HumidityBarometerVisibility
8:00 AM
Sat, Sep 5
63 °FPassing clouds.5 mph73%30.01 "HgN/A
7:30 AM63 °FClear.3 mph77%29.98 "Hg10 mi
7:00 AM63 °FClear.No wind88%29.98 "Hg10 mi
6:30 AM63 °FClear.1 mph83%29.98 "Hg10 mi
6:00 AM63 °FClear.No wind73%29.98 "Hg10 mi
5:30 AM63 °FClear.No wind68%29.98 "Hg10 mi
5:00 AM61 °FClear.No wind83%29.98 "Hg10 mi
4:30 AM61 °FClear.2 mph72%29.98 "Hg10 mi
4:00 AM61 °FClear.3 mph72%29.98 "Hg10 mi
3:30 AM63 °FClear.3 mph68%29.98 "Hg10 mi
3:00 AM64 °FClear.2 mph64%29.98 "Hg10 mi
2:30 AM64 °FClear.5 mph68%29.98 "Hg10 mi
2:00 AM66 °FClear.1 mph60%29.98 "Hg10 mi
1:30 AM66 °FClear.2 mph60%29.98 "Hg10 mi
1:00 AM64 °FClear.1 mph73%30.01 "Hg10 mi
12:30 AM64 °FPassing clouds.5 mph64%30.01 "HgN/A
12:00 AM66 °FClear.6 mph60%30.01 "Hg10 mi
11:30 PM
Fri, Sep 4
66 °FClear.8 mph60%30.01 "Hg10 mi
10:30 PM66 °FClear.12 mph60%30.01 "Hg10 mi
10:00 PM68 °FClear.12 mph60%30.01 "Hg10 mi
9:30 PM68 °FClear.13 mph56%30.01 "Hg10 mi
9:00 PM68 °FClear.14 mph56%29.98 "Hg10 mi
8:30 PM70 °FSunny.12 mph53%29.98 "Hg10 mi
8:00 PM72 °FSunny.14 mph50%29.98 "Hg10 mi
7:30 PM73 °FSunny.14 mph47%29.95 "Hg10 mi
7:00 PM70 °FSunny.17 mph69%29.98 "Hg10 mi
6:30 PM70 °FSunny.18 mph64%29.98 "Hg10 mi
6:00 PM70 °FSunny.21 mph64%29.98 "Hg10 mi
5:30 PM72 °FSunny.20 mph61%29.98 "Hg10 mi
5:00 PM72 °FSunny.23 mph61%29.98 "Hg10 mi
4:30 PM73 °FSunny.21 mph57%29.98 "Hg10 mi
4:00 PM73 °FSunny.20 mph57%29.98 "Hg10 mi
3:30 PM70 °FSunny.17 mph69%29.98 "Hg10 mi
3:00 PM73 °FSunny.18 mph57%29.98 "Hg10 mi
2:30 PM72 °FSunny.16 mph57%29.98 "Hg10 mi
2:00 PM72 °FSunny.16 mph57%30.01 "Hg10 mi
1:30 PM72 °FSunny.16 mph57%30.01 "Hg10 mi
1:00 PM70 °FSunny.15 mph60%30.01 "Hg10 mi
12:30 PM70 °FSunny.16 mph64%30.01 "Hg10 mi
12:00 PM73 °FPassing clouds.9 mph47%30.04 "HgN/A
11:30 AM72 °FPassing clouds.12 mph50%30.04 "HgN/A
11:00 AM70 °FPassing clouds.12 mph53%30.04 "HgN/A
10:30 AM68 °FSunny.12 mph60%30.04 "Hg10 mi
10:00 AM68 °FPassing clouds.13 mph60%30.04 "HgN/A
9:30 AM66 °FSunny.12 mph64%30.04 "Hg10 mi
9:00 AM64 °FSunny.8 mph73%30.01 "Hg10 mi
Weather by CustomWeather, © 2015

See weather overviewHow to use our weather pages